GW6646 Weather Reports


Display with metric or nautical units.
time (UTC)temp
F
wind
direction
speed
MPH
gust
MPH
rain 1hr
in
rain 24hr
in
rain mn
in
humidity
%
barometer
mb
20260505080737 67 125 4.0 6.0 0.00 0.00 0.00 51
20260505080232 67 174 5.0 10.0 0.00 0.00 0.00 50
20260505075729 67 216 5.0 9.0 0.00 0.00 0.00 50
20260505075226 67 198 8.0 10.0 0.00 0.00 0.00 49
20260505074723 68 168 5.0 8.0 0.00 0.00 0.00 47
20260505074220 68 222 7.0 9.0 0.00 0.00 0.00 48
20260505073718 68 218 5.0 9.0 0.00 0.00 0.00 47
20260505073215 68 84 2.0 6.0 0.00 0.00 0.00 49
20260505072711 68 202 7.0 9.0 0.00 0.00 0.00 48
20260505072208 68 198 4.0 8.0 0.00 0.00 0.00 49
20260505071703 68 211 6.0 8.0 0.00 0.00 0.00 48
20260505071201 68 218 4.0 8.0 0.00 0.00 0.00 50
20260505070658 69 223 6.0 9.0 0.00 0.00 0.00 48
20260505070154 69 196 4.0 8.0 0.00 0.00 0.00 49
20260505065650 69 222 6.0 11.0 0.00 0.00 0.00 48
20260505065147 69 224 5.0 10.0 0.00 0.00 0.00 50
20260505064644 69 188 4.0 11.0 0.00 0.00 0.00 51
20260505064142 69 184 6.0 10.0 0.00 0.00 0.00 49
20260505063640 69 222 7.0 10.0 0.00 0.00 0.00 50
20260505063136 69 202 5.0 9.0 0.00 0.00 0.00 49
20260505062632 70 186 14.0 17.0 0.00 0.00 0.00 48
20260505062129 70 249 6.0 8.0 0.00 0.00 0.00 49
20260505061626 70 140 6.0 13.0 0.00 0.00 0.00 47
20260505061125 69 170 8.0 13.0 0.00 0.00 0.00 48
20260505060622 70 166 10.0 11.0 0.00 0.00 0.00 48
20260505060119 69 213 6.0 7.0 0.00 0.00 0.00 49
20260505055614 70 256 6.0 14.0 0.00 0.00 0.00 49
20260505055110 70 175 5.0 11.0 0.00 0.00 0.00 47
20260505054608 70 157 5.0 13.0 0.00 0.00 0.00 46
20260505054106 71 149 9.0 15.0 0.00 0.00 0.00 45
20260505053603 70 157 5.0 13.0 0.00 0.00 0.00 46
20260505053059 70 145 8.0 13.0 0.00 0.00 0.00 46
20260505052556 70 153 9.0 11.0 0.00 0.00 0.00 46
20260505052054 70 143 4.0 13.0 0.00 0.00 0.00 46
20260505051551 70 184 6.0 13.0 0.00 0.00 0.00 45
20260505051049 70 91 7.0 9.0 0.00 0.00 0.00 45
20260505050546 70 144 10.0 14.0 0.00 0.00 0.00 44
20260505041514 70 149 6.0 13.0 0.00 0.00 0.00 41
20260505041012 70 118 7.0 10.0 0.00 0.00 0.00 40
20260505040509 70 103 4.0 7.0 0.00 0.00 0.00 38
20260505040006 69 163 5.0 9.0 0.00 0.00 0.00 37
20260505035502 69 132 3.0 10.0 0.00 0.00 0.00 37
20260505034959 70 138 4.0 10.0 0.00 0.00 0.00 35
20260505034455 70 137 4.0 7.0 0.00 0.00 0.00 34
20260505033952 68 128 4.0 6.0 0.00 0.00 0.00 35
20260505033449 69 137 7.0 8.0 0.00 0.00 0.00 35
20260505032948 69 140 6.0 9.0 0.00 0.00 0.00 34
20260505032444 69 122 2.0 9.0 0.00 0.00 0.00 32
20260505031940 70 120 1.0 8.0 0.00 0.00 0.00 28
20260505031438 69 133 2.0 8.0 0.00 0.00 0.00 28
20260505030935 68 86 2.0 4.0 0.00 0.00 0.00 33
20260505030431 69 142 7.0 9.0 0.00 0.00 0.00 33
20260505025926 69 148 2.0 7.0 0.00 0.00 0.00 29
20260505025423 69 143 1.0 8.0 0.00 0.00 0.00 30
20260505024922 67 123 2.0 6.0 0.00 0.00 0.00 31
20260505024419 68 132 6.0 7.0 0.00 0.00 0.00 30
20260505023916 68 154 6.0 9.0 0.00 0.00 0.00 31
20260505023413 68 110 5.0 6.0 0.00 0.00 0.00 30
20260505022910 68 130 5.0 9.0 0.00 0.00 0.00 31
20260505022408 68 146 6.0 7.0 0.00 0.00 0.00 31
20260505021905 68 145 1.0 7.0 0.00 0.00 0.00 34
20260505021401 67 150 3.0 7.0 0.00 0.00 0.00 35
20260505020857 67 111 1.0 7.0 0.00 0.00 0.00 37
20260505020353 67 137 3.0 9.0 0.00 0.00 0.00 34
20260505015850 67 158 5.0 10.0 0.00 0.00 0.00 35
20260505015347 67 123 3.0 4.0 0.00 0.00 0.00 37
20260505014844 67 123 5.0 8.0 0.00 0.00 0.00 36
20260505014341 65 67 1.0 6.0 0.00 0.00 0.00 33
20260505013837 66 136 3.0 9.0 0.00 0.00 0.00 36
20260505013335 67 165 6.0 7.0 0.00 0.00 0.00 37
20260505012833 66 81 4.0 9.0 0.00 0.00 0.00 35
20260505012331 65 56 5.0 9.0 0.00 0.00 0.00 35
20260505011826 66 97 5.0 10.0 0.00 0.00 0.00 36
20260505011324 66 174 1.0 6.0 0.00 0.00 0.00 38
20260505010819 66 154 8.0 11.0 0.00 0.00 0.00 35
20260505010315 67 118 4.0 8.0 0.00 0.00 0.00 35
20260505005812 67 112 2.0 7.0 0.00 0.00 0.00 35
20260505005309 66 64 5.0 11.0 0.00 0.00 0.00 34
20260505004806 67 143 7.0 13.0 0.00 0.00 0.00 32
20260505004302 65 68 4.0 10.0 0.00 0.00 0.00 31
20260505003800 66 135 5.0 11.0 0.00 0.00 0.00 30
20260505003257 66 128 5.0 7.0 0.00 0.00 0.00 30
20260505002753 65 132 2.0 7.0 0.00 0.00 0.00 32
20260505002251 65 80 2.0 7.0 0.00 0.00 0.00 33
20260505001749 64 110 2.0 7.0 0.00 0.00 0.00 32
20260505001246 64 79 7.0 11.0 0.00 0.00 0.00 33
20260505000742 64 65 7.0 11.0 0.00 0.00 0.00 32
20260505000240 64 19 5.0 14.0 0.00 0.00 0.00 33
20260504235737 64 59 6.0 16.0 0.00 0.00 0.00 33
20260504235233 63 24 8.0 14.0 0.00 0.00 0.00 33
20260504234730 63 56 9.0 13.0 0.00 0.00 0.00 36
20260504234228 62 15 8.0 13.0 0.00 0.00 0.00 36
20260504233724 62 61 10.0 14.0 0.00 0.00 0.00 36
20260504233219 62 15 5.0 10.0 0.00 0.00 0.00 40
20260504232717 62 71 3.0 9.0 0.00 0.00 0.00 41
20260504232214 61 88 7.0 11.0 0.00 0.00 0.00 41
20260504231710 61 87 3.0 8.0 0.00 0.00 0.00 43
20260504231207 60 48 4.0 13.0 0.00 0.00 0.00 43
20260504230703 60 41 6.0 8.0 0.00 0.00 0.00 46
20260504230202 59 357 3.0 9.0 0.00 0.00 0.00 47
20260504225700 59 24 7.0 13.0 0.00 0.00 0.00 48
20260504225155 60 46 6.0 10.0 0.00 0.00 0.00 49
20260504224653 59 45 6.0 9.0 0.00 0.00 0.00 49
20260504224150 58 45 9.0 11.0 0.00 0.00 0.00 48
20260504223647 59 84 6.0 8.0 0.00 0.00 0.00 49
20260504223142 58 61 4.0 7.0 0.00 0.00 0.00 49
20260504222640 58 28 5.0 8.0 0.00 0.00 0.00 52
20260504222136 58 43 7.0 14.0 0.00 0.00 0.00 52
20260504221634 57 4 4.0 7.0 0.00 0.00 0.00 54
20260504221131 56 6 11.0 13.0 0.00 0.00 0.00 56
20260504220627 56 44 7.0 9.0 0.00 0.00 0.00 57
20260504220125 56 16 6.0 10.0 0.00 0.00 0.00 57
20260504215621 56 32 9.0 10.0 0.00 0.00 0.00 59
20260504215119 56 44 6.0 8.0 0.00 0.00 0.00 59
20260504214614 55 10 6.0 8.0 0.00 0.00 0.00 60
20260504214110 55 46 7.0 9.0 0.00 0.00 0.00 60
20260504213607 55 340 4.0 8.0 0.00 0.00 0.00 62
20260504213104 54 9 5.0 6.0 0.00 0.00 0.00 63
20260504212600 54 346 8.0 9.0 0.00 0.00 0.00 61
20260504212057 54 3 6.0 7.0 0.00 0.00 0.00 63
20260504211554 54 2 4.0 7.0 0.00 0.00 0.00 62
20260504211051 54 12 7.0 8.0 0.00 0.00 0.00 61
20260504210548 53 24 3.0 7.0 0.00 0.00 0.00 62
20260504210045 53 58 4.0 4.0 0.00 0.00 0.00 64
20260504205543 52 13 2.0 3.0 0.00 0.00 0.00 65
20260504205041 52 19 3.0 4.0 0.00 0.00 0.00 66
20260504204538 51 97 0.0 2.0 0.00 0.00 0.00 68
20260504204037 51 114 0.0 1.0 0.00 0.00 0.00 69
20260504203534 51 131 0.0 1.0 0.00 0.00 0.00 70
20260504203032 51 99 0.0 2.0 0.00 0.00 0.00 70
20260504202527 51 20 2.0 2.0 0.00 0.00 0.00 69
20260504202025 51 70 2.0 3.0 0.00 0.00 0.00 69
20260504201521 51 22 3.0 4.0 0.00 0.00 0.00 68
20260504201019 51 83 2.0 3.0 0.00 0.00 0.00 68
20260504200515 51 95 1.0 2.0 0.00 0.00 0.00 67
20260504200012 52 12 4.0 6.0 0.00 0.00 0.00 67
20260504195508 52 9 6.0 7.0 0.00 0.00 0.00 67
20260504195005 52 27 5.0 7.0 0.00 0.00 0.00 68
20260504194501 52 16 6.0 8.0 0.00 0.00 0.00 67
20260504193957 52 20 4.0 7.0 0.00 0.00 0.00 68
20260504193454 52 3 7.0 8.0 0.00 0.00 0.00 68
20260504192953 53 11 7.0 8.0 0.00 0.00 0.00 68
20260504192450 53 357 6.0 9.0 0.00 0.00 0.00 68
20260504191949 52 61 5.0 15.0 0.00 0.00 0.00 68
20260504191446 52 9 7.0 8.0 0.00 0.00 0.00 69
20260504190941 53 19 5.0 7.0 0.00 0.00 0.00 69
20260504190437 52 38 4.0 8.0 0.00 0.00 0.00 70
20260504185934 52 52 4.0 9.0 0.00 0.00 0.00 71
20260504185432 53 39 4.0 8.0 0.00 0.00 0.00 71
20260504184927 53 12 4.0 6.0 0.00 0.00 0.00 73
20260504184423 53 24 3.0 8.0 0.00 0.00 0.00 73
20260504183919 53 9 6.0 10.0 0.00 0.00 0.00 74
20260504183417 53 24 4.0 10.0 0.00 0.00 0.00 74
20260504182915 53 30 5.0 9.0 0.00 0.00 0.00 74
20260504182411 53 0 5.0 7.0 0.00 0.00 0.00 74
20260504181908 53 19 6.0 9.0 0.00 0.00 0.00 74
20260504181406 53 6 9.0 11.0 0.00 0.00 0.00 74
20260504180904 53 359 8.0 11.0 0.00 0.00 0.00 74
20260504180403 53 0 6.0 8.0 0.00 0.00 0.00 74
20260504175900 54 99 1.0 3.0 0.00 0.00 0.00 73
20260504175356 54 24 6.0 10.0 0.00 0.00 0.00 73
20260504174855 54 359 9.0 11.0 0.00 0.00 0.00 73
20260504174352 54 5 8.0 9.0 0.00 0.00 0.00 73
20260504173849 54 29 3.0 7.0 0.00 0.00 0.00 73
20260504173345 54 15 6.0 9.0 0.00 0.00 0.00 73
20260504172843 54 86 4.0 9.0 0.00 0.00 0.00 73
20260504172339 54 25 3.0 7.0 0.00 0.00 0.00 72
20260504171835 55 14 6.0 7.0 0.00 0.00 0.00 72
20260504171332 55 72 5.0 8.0 0.00 0.00 0.00 72
20260504170830 55 48 5.0 7.0 0.00 0.00 0.00 72
20260504170326 55 52 2.0 7.0 0.00 0.00 0.00 74
20260504160245 56 7 4.0 9.0 0.00 0.00 0.00 69
20260504150710 56 9 7.0 10.0 0.00 0.00 0.00 68
20260504150207 56 317 6.0 10.0 0.00 0.00 0.00 68
20260504141136 57 44 5.0 8.0 0.00 0.04 0.04 70
20260504140633 57 54 9.0 11.0 0.00 0.04 0.04 70
20260504140128 57 63 6.0 11.0 0.00 0.04 0.04 70
20260504130556 58 38 6.0 9.0 0.00 0.04 0.04 70
20260504110444 59 93 7.0 9.0 0.00 0.04 0.04 71
20260504100406 60 58 6.0 7.0 0.00 0.04 0.04 70
20260504081800 65 35 6.0 16.0 0.00 0.04 0.04 62
20260504081256 67 53 4.0 9.0 0.00 0.04 0.04 59